Onweer radar Meer informatie blitzortung!


Regen radar Meer informatie rain snow radar


Bezoek onze andere website:

Template documentation
and downloads

And another site



15 daagse weersverwachting Reading (GB)

  • Overzicht
  • Per uur
  • 15 dagen
  • Extra
  • Vergelijk
  • Kaarten
  • Dagkaart
  • Meer »
  • Info
  • Statistieken
  • Directe link
    Temp 6h Neerslag Wind  
 05:30     20:51    Daglengte: 15:21 Morgen
01:00
14°
 
3
07:00
13°
 
2
13:00
18°
 
3
19:00
17°
2.1 mm
2
 05:32     20:49    Daglengte: 15:17 Maandag 02 Aug
01:00
13°
 
2
07:00
13°
 
2
13:00
18°
 
3
19:00
18°
26.2 mm
2
 05:33     20:47    Daglengte: 15:14 Dinsdag 03 Aug
01:00
13°
 
2
07:00
12°
 
1
13:00
20°
 
2
19:00
20°
 
3
Locatie info
Region: England
Latitude: 51.4535°N
Longitude: -0.9630°E
51 masl
Postcode: RG1 4
Temp/Neerslag /Baro Onweer/Dauwpunt
    Temp Baro 1h Neerslag Dauwpunt Wind UV Bewolking  
 05:29     20:52    Daglengte: 15:23 Vandaag
23:00
15°
1010.3 hPa
49%
11.0°
3
Windvlaag: 2.5 m/s
27%
 05:30     20:51    Daglengte: 15:21 Morgen
00:00
14°
1010.4 hPa
14%
11.0°
3
Windvlaag: 2.4 m/s
23%
01:00
14°
1010.3 hPa
14%
10.8°
3
Windvlaag: 1.6 m/s
15%
02:00
14°
1010.2 hPa
14%
11.0°
3
Windvlaag: 1 m/s
16%
03:00
13°
1009.9 hPa
14%
11.2°
2
Windvlaag: 0.4 m/s
18%
04:00
13°
1009.7 hPa
14%
11.2°
2
Windvlaag: -0.3 m/s
15%
05:00
13°
1009.7 hPa
14%
11.0°
2
Windvlaag: -0.4 m/s
22%
06:00
13°
1009.8 hPa
14%
11.2°
2
Windvlaag: -0.3 m/s
21%
07:00
13°
1010.2 hPa
14%
11.5°
2
Windvlaag: -1.1 m/s
61%
08:00
14°
1010.4 hPa
14%
12.4°
2
Windvlaag: -1.2 m/s
52%
09:00
15°
1010.8 hPa
14%
12.9°
2
Windvlaag: -0.6 m/s
47%
10:00
16°
1010.9 hPa
15%
12.7°
2
Windvlaag: 1.8 m/s
65%
11:00
16°
1010.9 hPa
20%
12.5°
2
Windvlaag: 2.3 m/s
72%
12:00
18°
1010.9 hPa
58%
12.1°
2
Windvlaag: 3.3 m/s
72%
13:00
18°
1011.0 hPa
72%
11.7°
3
Windvlaag: 0.7 m/s
68%
14:00
17°
1011.3 hPa 0.8 mm
82%
11.9°
3
Windvlaag: 0.4 m/s
52%
15:00
18°
1011.2 hPa 0.6 mm
82%
12.3°
2
Windvlaag: -1.2 m/s
48%
16:00
18°
1011.1 hPa 0.7 mm
80%
12.0°
2
Windvlaag: -1 m/s
47%
17:00
18°
1011.1 hPa
72%
11.8°
2
Windvlaag: -0.1 m/s
19%
18:00
17°
1011.2 hPa
69%
11.5°
2
Windvlaag: -1.5 m/s
14%
19:00
17°
1011.3 hPa
15%
11.7°
2
Windvlaag: -2.6 m/s
24%
20:00
16°
1011.5 hPa
14%
12.0°
3
Windvlaag: -2 m/s
14%
21:00
16°
1012.3 hPa
17%
12.2°
2
Windvlaag: -2.4 m/s
15%
22:00
15°
1013.0 hPa
19%
12.3°
2
Windvlaag: 0.3 m/s
12%
23:00
14°
1013.0 hPa
14%
12.3°
2
Windvlaag: 0.2 m/s
12%
 05:32     20:49    Daglengte: 15:17 Maandag 02 Aug
00:00
14°
1013.0 hPa
14%
12.1°
2
Windvlaag: 0 m/s
13%
01:00
13°
1013.0 hPa
14%
12.1°
2
Windvlaag: 0.1 m/s
16%
02:00
13°
1013.2 hPa
16%
12.1°
2
Windvlaag: -0 m/s
20%
03:00
13°
1013.3 hPa
14%
12.1°
2
Windvlaag: 0.2 m/s
19%
04:00
13°
1013.4 hPa
14%
11.9°
2
Windvlaag: 0.4 m/s
19%
05:00
13°
1013.5 hPa
14%
11.4°
2
Windvlaag: 0.7 m/s
22%
06:00
13°
1013.8 hPa
14%
11.5°
2
Windvlaag: 1.1 m/s
22%
07:00
13°
1014.1 hPa
14%
11.4°
2
Windvlaag: 1.2 m/s
22%
08:00
14°
1014.4 hPa
14%
11.5°
2
Windvlaag: 0.8 m/s
22%
09:00
14°
1014.8 hPa
14%
11.8°
3
Windvlaag: 1.6 m/s
35%
10:00
15°
1014.9 hPa
14%
11.7°
3
Windvlaag: 2.9 m/s
40%
11:00
17°
1015.0 hPa
14%
11.3°
3
Windvlaag: 2.9 m/s
54%
12:00
17°
1014.7 hPa
14%
10.0°
3
Windvlaag: 3.9 m/s
57%
13:00
18°
1014.6 hPa
14%
9.2°
3
Windvlaag: 2.6 m/s
72%
14:00
18°
1014.4 hPa
14%
8.8°
2
Windvlaag: 2.2 m/s
83%
15:00
18°
1014.3 hPa
14%
8.9°
2
Windvlaag: 1.7 m/s
81%
16:00
19°
1013.7 hPa 6.9 mm
21%
8.8°
3
Windvlaag: 1.9 m/s
96%
17:00
19°
1013.4 hPa 6.1 mm
21%
10.5°
2
Windvlaag: 2.6 m/s
83%
18:00
19°
1013.4 hPa 6.9 mm
22%
10.1°
2
Windvlaag: 3.2 m/s
83%
19:00
18°
1013.4 hPa 6.3 mm
22%
10.4°
2
Windvlaag: 3.3 m/s
82%
20:00
18°
1013.5 hPa
21%
10.6°
2
Windvlaag: 1.6 m/s
77%
21:00
16°
1014.0 hPa
21%
11.2°
1
Windvlaag: -0.3 m/s
79%
22:00
15°
1014.4 hPa
21%
11.6°
1
Windvlaag: -0.6 m/s
79%
23:00
14°
1014.6 hPa
21%
11.7°
2
Windvlaag: -0.7 m/s
72%
 05:33     20:47    Daglengte: 15:14 Dinsdag 03 Aug
00:00
14°
1014.6 hPa
21%
10.3°
2
Windvlaag: -0.5 m/s
63%
01:00
13°
1014.4 hPa
21%
10.2°
2
Windvlaag: 0.7 m/s
43%
02:00
13°
1014.2 hPa
21%
11.4°
2
Windvlaag: 0.6 m/s
46%
03:00
12°
1013.9 hPa
21%
11.6°
2
Windvlaag: -0.8 m/s
49%
04:00
12°
1014.0 hPa
21%
11.5°
1
Windvlaag: -1.4 m/s
75%
05:00
12°
1014.0 hPa
21%
11.7°
1
Windvlaag: -1.6 m/s
75%
06:00
12°
1014.3 hPa
21%
11.5°
1
Windvlaag: -1.5 m/s
62%
07:00
12°
1014.5 hPa
21%
11.8°
1
Windvlaag: -1.2 m/s
57%
08:00
14°
1014.6 hPa
21%
13.1°
1
Windvlaag: -1 m/s
49%
09:00
16°
1014.5 hPa
21%
12.3°
2
Windvlaag: 0.3 m/s
24%
10:00
17°
1014.5 hPa
22%
10.9°
2
Windvlaag: 0.9 m/s
20%
11:00
19°
1014.3 hPa
26%
9.8°
2
Windvlaag: 1.7 m/s
24%
12:00
20°
1014.0 hPa
21%
8.7°
2
Windvlaag: 2 m/s
41%
13:00
20°
1013.5 hPa
21%
8.3°
2
Windvlaag: 2.3 m/s
67%
14:00
21°
1013.0 hPa
21%
8.8°
2
Windvlaag: 2.2 m/s
42%
15:00
21°
1012.8 hPa
21%
9.1°
2
Windvlaag: 3.6 m/s
54%
16:00
21°
1012.5 hPa
21%
12.0°
2
Windvlaag: 4.5 m/s
12%
17:00
21°
1012.1 hPa
21%
11.5°
2
Windvlaag: 3.6 m/s
17%
18:00
21°
1012.0 hPa
26%
11.3°
2
Windvlaag: 4 m/s
53%
19:00
20°
1012.1 hPa
26%
10.6°
3
Windvlaag: 3.2 m/s
66%
20:00
19°
1012.4 hPa
63%
10.7°
2
Windvlaag: 3.6 m/s
59%
21:00
17°
1012.9 hPa
21%
11.0°
2
Windvlaag: 5.3 m/s
59%
22:00
16°
1013.2 hPa
21%
13.0°
2
Windvlaag: 5.2 m/s
72%
Temp/Neerslag /Baro Onweer/Dauwpunt
    Temp Baro Neerslag Dauwpunt Wind Bewolking  
 05:30     20:51    Daglengte: 15:21 Morgen
01:00
14°
1010.3 hPa   10.8°
3
15%
04:00
13°
1009.7 hPa   11.2°
2
15%
07:00
13°
1010.2 hPa   11.5°
2
61%
10:00
16°
1010.9 hPa   12.7°
2
65%
13:00
18°
1011.0 hPa   11.7°
3
68%
16:00
18°
1011.1 hPa 2.1 mm 12.0°
2
47%
19:00
17°
1011.3 hPa   11.7°
2
24%
22:00
15°
1013.0 hPa   12.3°
2
12%
 05:32     20:49    Daglengte: 15:17 Maandag 02 Aug
01:00
13°
1013.0 hPa   12.1°
2
16%
04:00
13°
1013.4 hPa   11.9°
2
19%
07:00
13°
1014.1 hPa   11.4°
2
22%
10:00
15°
1014.9 hPa   11.7°
3
40%
13:00
18°
1014.6 hPa   9.2°
3
72%
16:00
19°
1013.7 hPa 6.9 mm 8.8°
3
96%
19:00
18°
1013.4 hPa 19.3 mm 10.4°
2
82%
22:00
15°
1014.4 hPa   11.6°
1
79%
 05:33     20:47    Daglengte: 15:14 Dinsdag 03 Aug
01:00
13°
1014.4 hPa   10.2°
2
43%
04:00
12°
1014.0 hPa   11.5°
1
75%
07:00
12°
1014.5 hPa   11.8°
1
57%
10:00
17°
1014.5 hPa   10.9°
2
20%
13:00
20°
1013.5 hPa   8.3°
2
67%
16:00
21°
1012.5 hPa   12.0°
2
12%
19:00
20°
1012.1 hPa   10.6°
3
66%
22:00
16°
1013.2 hPa   13.0°
2
72%
 05:35     20:46    Daglengte: 15:11 Woensdag 04 Aug
01:00
14°
1013.3 hPa   13.3°
1
75%
04:00
12°
1013.8 hPa 10.5 mm 10.7°
1
1%
07:00
14°
1014.7 hPa 10.5 mm 10.9°
1
1%
10:00
18°
1015.3 hPa 10.5 mm 10.9°
0
1%
13:00
22°
1014.9 hPa 10.5 mm 9.8°
1
0%
16:00
21°
1014.4 hPa 10.5 mm 8.5°
2
1%
19:00
18°
1014.1 hPa 10.6 mm 13.0°
5
1%
22:00
14°
1013.9 hPa 10.7 mm 12.0°
4
1%
 05:36     20:44    Daglengte: 15:08 Donderdag 05 Aug
01:00
13°
1012.1 hPa 10.7 mm 12.5°
4
1%
04:00
14°
1009.5 hPa 10.9 mm 12.8°
5
1%
07:00
14°
1006.6 hPa 11.6 mm 12.6°
6
1%
10:00
14°
1003.3 hPa 13.2 mm 12.9°
8
1%
13:00
15°
1000.9 hPa 14.6 mm 14.3°
6
1%
16:00
19°
998.5 hPa 16.2 mm 14.3°
8
1%
19:00
16°
997.5 hPa 17.2 mm 13.9°
6
1%
22:00
15°
997.0 hPa 21.0 mm 14.1°
5
1%
 05:38     20:42    Daglengte: 15:04 Vrijdag 06 Aug
01:00
15°
996.7 hPa 21.5 mm 14.1°
5
1%
04:00
15°
996.7 hPa 21.8 mm 14.2°
5
1%
07:00
15°
998.0 hPa 21.9 mm 13.2°
5
1%
10:00
18°
1000.3 hPa 22.0 mm 14.2°
7
1%
13:00
19°
1001.8 hPa 22.7 mm 14.3°
7
1%
16:00
19°
1002.9 hPa 23.7 mm 14.4°
8
1%
19:00
18°
1004.4 hPa 24.0 mm 12.9°
7
1%
22:00
14°
1006.1 hPa 24.0 mm 11.5°
5
1%
 05:40     20:40    Daglengte: 15:00 Zaterdag 07 Aug
01:00
13°
1006.8 hPa 24.0 mm 12.1°
5
1%
04:00
13°
1006.5 hPa 24.0 mm 11.4°
4
1%
07:00
13°
1006.1 hPa 24.0 mm 11.3°
3
1%
10:00
17°
1006.5 hPa 24.0 mm 11.6°
5
1%
13:00
18°
1005.4 hPa 24.1 mm 11.1°
5
1%
16:00
18°
1004.6 hPa 24.2 mm 11.3°
7
1%
19:00
15°
1003.0 hPa 24.3 mm 12.5°
7
1%
22:00
15°
1001.8 hPa   13.7°
9
1%
 05:41     20:39    Daglengte: 14:58 Zondag 08 Aug
01:00
14°
1002.0 hPa 49.4 mm 13.3°
6
1%
07:00
14°
1001.1 hPa 49.9 mm 11.9°
8
1%
13:00
17°
1002.4 hPa 53.0 mm 12.0°
7
1%
19:00
17°
1007.8 hPa 56.0 mm 13.1°
8
1%
 05:43     20:37    Daglengte: 14:54 Maandag 09 Aug
01:00
14°
1013.1 hPa 56.6 mm 13.2°
7
0%
07:00
15°
1017.3 hPa 56.7 mm 11.4°
6
0%
13:00
20°
1020.6 hPa 56.7 mm 10.0°
7
1%
19:00
18°
1021.7 hPa 56.7 mm 11.6°
5
1%
 05:44     20:35    Daglengte: 14:51 Dinsdag 10 Aug
01:00
14°
1023.4 hPa 56.7 mm 13.2°
3
1%
07:00
17°
1022.9 hPa 56.7 mm 14.9°
3
1%
13:00
23°
1022.8 hPa 56.7 mm 13.5°
6
1%
19:00
20°
1019.8 hPa 0.6 mm 11.8°
4
55%
 05:46     20:33    Daglengte: 14:47 Woensdag 11 Aug
01:00
15°
1020.8 hPa   11.5°
2
49%
07:00
14°
1020.7 hPa   11.4°
1
44%
13:00
21°
1020.9 hPa 0.1 mm 11.4°
2
49%
19:00
21°
1020.2 hPa 0.3 mm 12.2°
2
59%
 05:47     20:31    Daglengte: 14:44 Donderdag 12 Aug
01:00
16°
1020.8 hPa   11.6°
1
49%
07:00
15°
1020.4 hPa 0.1 mm 11.6°
1
53%
13:00
22°
1020.4 hPa 0.2 mm 12.1°
1
54%
19:00
21°
1019.7 hPa 0.3 mm 12.4°
1
63%
 05:49     20:29    Daglengte: 14:40 Vrijdag 13 Aug
01:00
16°
1020.2 hPa 0.1 mm 11.8°
1
53%
07:00
15°
1019.8 hPa 0.2 mm 12.0°
1
46%
13:00
22°
1019.6 hPa 0.2 mm 11.8°
2
51%
19:00
21°
1019.0 hPa 0.3 mm 12.0°
2
60%
 05:50     20:27    Daglengte: 14:37 Zaterdag 14 Aug
01:00
16°
1019.7 hPa 0.2 mm 11.7°
1
47%
07:00
15°
1019.4 hPa 0.4 mm 12.0°
1
44%
13:00
23°
1019.3 hPa 0.4 mm 12.2°
2
53%
19:00
21°
1018.4 hPa 0.5 mm 13.1°
2
56%
 05:52     20:25    Daglengte: 14:33 Zondag 15 Aug
01:00
17°
1019.0 hPa 0.2 mm 12.5°
2
46%
07:00
15°
1018.6 hPa 0.1 mm 12.2°
2
44%
13:00
22°
1018.8 hPa 0.2 mm 12.5°
2
42%
19:00
21°
1018.1 hPa 0.3 mm 12.4°
2
55%
  CAPE Lifted Index Hail Supercell Tornado SRH 3km CL BTM PRES CL TOP PRES Swiss DWD icon SMHI TS
 05:29     20:52    Daglengte: 15:23 Vandaag
23:00 0 J/kg 0.7 K 0 % 0 % 0 % 0 m²/s² 0 0 1.57 2
 05:30     20:51    Daglengte: 15:21 Morgen
00:00 0 J/kg 0.7 K 0 % 0 % 0 % 0 m²/s² 0 0 1.33 2
01:00 0 J/kg 1.2 K 0 % 0 % 0 % 0 m²/s² 0 0 1.71 2
02:00 0 J/kg 1.0 K 0 % 0 % 0 % 0 m²/s² 0 0 1.42 2
03:00 0 J/kg 1.2 K 0 % 0 % 0 % 0 m²/s² 0 0 1.83 3
04:00 0 J/kg 1.5 K 0 % 0 % 0 % 0 m²/s² 0 0 2.37 2
05:00 1 J/kg 1.9 K 0 % 0 % 0 % 0 m²/s² 0 0 3.07 2
06:00 0 J/kg 2.0 K 0 % 0 % 0 % 0 m²/s² 0 0 2.93 2
07:00 0 J/kg 2.3 K 0 % 0 % 0 % 0 m²/s² 0 0 3.23 3
08:00 0 J/kg 2.4 K 0 % 0 % 0 % 0 m²/s² 0 0 3.69 3
09:00 5 J/kg 2.8 K 0 % 0 % 0 % 0 m²/s² 0 0 4.78 3
10:00 53 J/kg 2.0 K 0 % 0 % 0 % 0 m²/s² 0 0 4.25 3
11:00 45 J/kg 2.0 K 0 % 0 % 0 % 0 m²/s² 0 0 3.92 3
12:00 31 J/kg 2.2 K 0 % 0 % 0 % 0 m²/s² 0 0 3.91 3
13:00 44 J/kg 1.7 K 0 % 0 % 0 % 0 m²/s² 0 0 3.14 3
14:00 150 J/kg 0.9 K 0 % 0 % 0 % 0 m²/s² 0 0 2.55 80
15:00 227 J/kg 0.2 K 0 % 0 % 0 % 0 m²/s² 0 0 2.3 80
16:00 227 J/kg -0.1 K 0 % 0 % 0 % 0 m²/s² 0 0 2.87 80
17:00 252 J/kg -0.2 K 0 % 0 % 0 % 0 m²/s² 0 0 3.22 80
18:00 340 J/kg -0.9 K 0 % 0 % 0 % 0 m²/s² 0 0 1.08 2
19:00 336 J/kg -1.4 K 0 % 0 % 0 % 0 m²/s² 0 0 -1.4 2
20:00 133 J/kg 0.6 K 0 % 0 % 0 % 0 m²/s² 0 0 1.71 1
21:00 118 J/kg 0.6 K 0 % 0 % 0 % 0 m²/s² 0 0 3.33 0
22:00 106 J/kg 0.6 K 0 % 0 % 0 % 0 m²/s² 0 0 4.11 0
23:00 96 J/kg 0.9 K 0 % 0 % 0 % 0 m²/s² 0 0 4.77 1
 05:32     20:49    Daglengte: 15:17 Maandag 02 Aug
00:00 115 J/kg 0.7 K 0 % 0 % 0 % 0 m²/s² 0 0 4.69 1
01:00 67 J/kg 1.3 K 0 % 0 % 0 % 0 m²/s² 0 0 5.29 2
02:00 0 J/kg 1.5 K 0 % 0 % 0 % 0 m²/s² 0 0 5.79 2
03:00 0 J/kg 1.6 K 0 % 0 % 0 % 0 m²/s² 0 0 6.13 2
04:00 0 J/kg 1.8 K 0 % 0 % 0 % 0 m²/s² 0 0 6.66 2
05:00 0 J/kg 2.5 K 0 % 0 % 0 % 0 m²/s² 0 0 7.51 1
06:00 0 J/kg 3.6 K 0 % 0 % 0 % 0 m²/s² 0 0 8.46 2
07:00 0 J/kg 4.8 K 0 % 0 % 0 % 0 m²/s² 0 0 9.3 2
08:00 0 J/kg 5.5 K 0 % 0 % 0 % 0 m²/s² 0 0 9.25 2
09:00 0 J/kg 6.0 K 0 % 0 % 0 % 0 m²/s² 0 0 9.06 2
10:00 0 J/kg 6.2 K 0 % 0 % 0 % 0 m²/s² 0 0 8.84 2
11:00 0 J/kg 6.6 K 0 % 0 % 0 % 0 m²/s² 0 0 9.09 3
12:00 0 J/kg 6.0 K 0 % 0 % 0 % 0 m²/s² 0 0 8.43 3
13:00 0 J/kg 5.0 K 0 % 0 % 0 % 0 m²/s² 0 0 7.58 3
14:00 6 J/kg 4.2 K 0 % 0 % 0 % 0 m²/s² 0 0 6.63 3
15:00 16 J/kg 3.5 K 0 % 0 % 0 % 0 m²/s² 0 0 5.99 3
16:00 59 J/kg 2.3 K 0 % 0 % 0 % 0 m²/s² 0 0 4.31 3
17:00 98 J/kg 1.1 K 0 % 0 % 0 % 0 m²/s² 0 0 2.99 2
18:00 97 J/kg 0.7 K 0 % 0 % 0 % 0 m²/s² 0 0 3.25 2
19:00 114 J/kg 0.4 K 0 % 0 % 0 % 0 m²/s² 0 0 2.68 2
20:00 101 J/kg 0.2 K 0 % 0 % 0 % 0 m²/s² 0 0 2.15 1
21:00 144 J/kg 0.2 K 0 % 0 % 0 % 0 m²/s² 0 0 2.03 1
22:00 188 J/kg 0.1 K 0 % 0 % 0 % 0 m²/s² 0 0 2.17 2
23:00 110 J/kg 0.6 K 0 % 0 % 0 % 0 m²/s² 0 0 2.79 2
 05:33     20:47    Daglengte: 15:14 Dinsdag 03 Aug
00:00 0 J/kg 1.4 K 0 % 0 % 0 % 0 m²/s² 0 0 3.53 1
01:00 5 J/kg 1.2 K 0 % 0 % 0 % 0 m²/s² 0 0 3.27 0
02:00 92 J/kg 0.9 K 0 % 0 % 0 % 0 m²/s² 0 0 3.09 0
03:00 66 J/kg 1.6 K 0 % 0 % 0 % 0 m²/s² 0 0 3.88 0
04:00 38 J/kg 2.4 K 0 % 0 % 0 % 0 m²/s² 0 0 4.29 1
05:00 0 J/kg 3.5 K 0 % 0 % 0 % 0 m²/s² 0 0 5.57 45
06:00 0 J/kg 3.9 K 0 % 0 % 0 % 0 m²/s² 0 0 6.18 45
07:00 0 J/kg 4.7 K 0 % 0 % 0 % 0 m²/s² 0 0 7.19 45
08:00 0 J/kg 4.7 K 0 % 0 % 0 % 0 m²/s² 0 0 7.49 1
09:00 34 J/kg 3.6 K 0 % 0 % 0 % 0 m²/s² 0 0 6.9 0
10:00 44 J/kg 3.4 K 0 % 0 % 0 % 0 m²/s² 0 0 7.45 1
11:00 25 J/kg 4.0 K 0 % 0 % 0 % 0 m²/s² 0 0 7.96 1
12:00 16 J/kg 4.4 K 0 % 0 % 0 % 0 m²/s² 0 0 8.69 2
13:00 51 J/kg 4.1 K 0 % 0 % 0 % 0 m²/s² 0 0 7.85 2
14:00 72 J/kg 4.2 K 0 % 0 % 0 % 0 m²/s² 0 0 7.68 2
15:00 123 J/kg 3.5 K 0 % 0 % 0 % 0 m²/s² 0 0 6.62 2
16:00 132 J/kg 2.4 K 0 % 0 % 0 % 0 m²/s² 0 0 5.43 3
17:00 142 J/kg 2.4 K 0 % 0 % 0 % 0 m²/s² 0 0 5.43 3
18:00 104 J/kg 2.3 K 0 % 0 % 0 % 0 m²/s² 0 0 5.33 3
19:00 62 J/kg 3.0 K 0 % 0 % 0 % 0 m²/s² 0 0 5.73 3
20:00 56 J/kg 3.1 K 0 % 0 % 0 % 0 m²/s² 0 0 5.38 3
21:00 8 J/kg 3.1 K 0 % 0 % 0 % 0 m²/s² 0 0 5.05 3
22:00 94 J/kg 1.8 K 0 % 0 % 0 % 0 m²/s² 0 0 3.51 3
Temp Baro Wind Neerslag
  EWN Forecast EWN WRFDA DWD ICON FMI HIRLAM MET Norway GFS
 05:30     20:51    Daglengte: 15:21 Morgen
01:00 14.1° 1010.3 hPa 2.6 m/s 0.0 mm 14.3° 1009.3 hPa 3.7 m/s 4.2 mm 13.9° 1010.4 hPa 1.8 m/s -1.3 mm 15.7° 1010.4 hPa 2.6 m/s 0.0 mm 12.5° 1010.2 hPa 3.1 m/s
04:00 13.1° 1009.7 hPa 2.2 m/s 0.0 mm 10.6° 1008.8 hPa 2.5 m/s 5.4 mm 13.1° 1009.9 hPa 1.5 m/s -0.0 mm 14.8° 1009.4 hPa 2.5 m/s 0.0 mm 11.7° 1009.9 hPa 2.2 m/s
07:00 13.5° 1010.2 hPa 2.0 m/s 0.0 mm 13.6° 1009.1 hPa 1.6 m/s 5.5 mm 13.3° 1010.3 hPa 1.9 m/s 0.0 mm 14.5° 1009.7 hPa 2.3 m/s 0.0 mm 13.3° 1010.3 hPa 0.8 m/s
10:00 15.6° 1010.9 hPa 1.5 m/s 0.0 mm 16.7° 1009.4 hPa 1.9 m/s 5.7 mm 16.7° 1011.2 hPa 2.0 m/s 0.0 mm 15.6° 1010.3 hPa 1.5 m/s 0.0 mm 14.9° 1011.3 hPa 1.0 m/s
13:00 17.8° 1011.0 hPa 2.8 m/s 0.0 mm 19.4° 1009.4 hPa 4.2 m/s 5.8 mm 18.6° 1011.3 hPa 2.5 m/s 0.1 mm 17.8° 1010.5 hPa 2.7 m/s 0.0 mm 17.2° 1011.4 hPa 2.3 m/s
16:00 18.1° 1011.1 hPa 2.3 m/s 2.1 mm 20.6° 1008.7 hPa 4.8 m/s 6.2 mm 18.2° 1011.4 hPa 2.3 m/s 1.1 mm 18.3° 1010.8 hPa 2.1 m/s 0.0 mm 17.4° 1011.7 hPa 2.4 m/s
19:00 17.0° 1011.3 hPa 2.2 m/s 0.0 mm 17.2° 1008.9 hPa 1.8 m/s 12.9 mm 18.5° 1011.1 hPa 1.2 m/s 0.3 mm 16.8° 1011.5 hPa 3.1 m/s 0.0 mm 17.0° 1011.8 hPa 2.6 m/s
22:00 14.8° 1013.0 hPa 2.1 m/s 0.0 mm 14.3° 1010.2 hPa 1.6 m/s 53.6 mm 15.4° 1012.6 hPa 1.0 m/s 0.0 mm 14.9° 1013.3 hPa 2.9 m/s 0.0 mm 13.5° 1013.1 hPa 2.8 m/s
 05:32     20:49    Daglengte: 15:17 Maandag 02 Aug
01:00 13.3° 1013.0 hPa 1.9 m/s 0.0 mm 14.3° 1010.5 hPa 3.3 m/s 53.9 mm 13.3° 1012.9 hPa 1.8 m/s 0.0 mm 13.7° 1013.1 hPa 1.4 m/s 0.0 mm 13.6° 1013.2 hPa 2.5 m/s
04:00 12.8° 1013.4 hPa 1.8 m/s 0.0 mm 13.5° 1011.0 hPa 3.1 m/s 54.0 mm 12.6° 1013.5 hPa 2.2 m/s 0.0 mm 13.0° 1013.5 hPa 1.7 m/s 0.0 mm 13.8° 1013.1 hPa 2.6 m/s
07:00 13.1° 1014.1 hPa 1.8 m/s 0.0 mm 13.3° 1012.2 hPa 3.6 m/s 54.0 mm 12.5° 1014.3 hPa 1.9 m/s 0.0 mm 13.6° 1014.2 hPa 1.5 m/s 0.0 mm 13.3° 1013.6 hPa 3.8 m/s
10:00 15.3° 1014.9 hPa 2.9 m/s 0.0 mm 15.9° 1012.6 hPa 4.0 m/s 54.0 mm 16.4° 1015.1 hPa 3.3 m/s 0.0 mm 14.8° 1015.6 hPa 1.9 m/s 0.0 mm 13.2° 1013.9 hPa 3.9 m/s
13:00 18.2° 1014.6 hPa 2.6 m/s 0.0 mm 19.3° 1012.4 hPa 3.7 m/s 54.0 mm 19.3° 1014.6 hPa 2.7 m/s 0.0 mm 17.8° 1016.1 hPa 2.5 m/s 0.0 mm 14.4° 1013.8 hPa 4.3 m/s
16:00 19.2° 1013.7 hPa 2.6 m/s 6.9 mm 19.8° 1012.1 hPa 2.7 m/s 54.0 mm 19.9° 1014.3 hPa 2.8 m/s 0.0 mm 14.8° 1013.4 hPa 3.3 m/s
19:00 18.5° 1013.4 hPa 1.9 m/s 19.3 mm 19.1° 1011.5 hPa 2.6 m/s 54.0 mm 19.6° 1013.7 hPa 2.0 m/s 0.0 mm 13.7° 1012.7 hPa 3.2 m/s
22:00 15.4° 1014.4 hPa 1.0 m/s 0.0 mm 16.4° 1012.2 hPa 0.9 m/s 54.0 mm 15.5° 1014.8 hPa 0.9 m/s 0.0 mm 12.7° 1013.4 hPa 3.4 m/s
 05:33     20:47    Daglengte: 15:14 Dinsdag 03 Aug
01:00 13.3° 1014.4 hPa 1.7 m/s 0.0 mm 13.2° 1012.1 hPa 2.3 m/s 54.0 mm 13.3° 1014.7 hPa 1.4 m/s 0.0 mm 12.9° 1013.0 hPa 3.2 m/s
04:00 11.8° 1014.0 hPa 1.3 m/s 0.0 mm 11.8° 1012.1 hPa 1.2 m/s 54.0 mm 11.6° 1014.4 hPa 1.1 m/s 0.0 mm 11.9° 1012.6 hPa 2.8 m/s
07:00 12.0° 1014.5 hPa 1.2 m/s 0.0 mm 11.7° 1012.6 hPa 1.1 m/s 54.0 mm 11.8° 1014.8 hPa 0.6 m/s 0.0 mm 12.9° 1013.3 hPa 3.0 m/s
10:00 17.5° 1014.5 hPa 2.0 m/s 0.0 mm 17.9° 1012.4 hPa 1.8 m/s 54.0 mm 17.7° 1014.7 hPa 2.0 m/s 0.0 mm 15.7° 1013.6 hPa 4.2 m/s
13:00 20.4° 1013.5 hPa 2.5 m/s 0.0 mm 21.1° 1012.0 hPa 2.6 m/s 54.0 mm 20.6° 1013.5 hPa 2.0 m/s 0.0 mm 18.5° 1013.4 hPa 3.4 m/s
16:00 21.3° 1012.5 hPa 2.3 m/s 0.0 mm 20.6° 1012.1 hPa 4.5 m/s 54.0 mm 21.5° 1012.7 hPa 1.8 m/s 0.0 mm 19.7° 1013.0 hPa 2.8 m/s
19:00 19.9° 1012.1 hPa 3.5 m/s 0.0 mm 19.9° 1011.8 hPa 3.1 m/s 54.1 mm 19.9° 1012.2 hPa 3.5 m/s 0.0 mm 18.6° 1012.7 hPa 1.2 m/s
22:00 16.0° 1013.2 hPa 1.9 m/s 0.0 mm 15.1° 1013.2 hPa 2.6 m/s 54.2 mm 16.2° 1013.2 hPa 1.7 m/s 0.0 mm 14.0° 1014.0 hPa 1.9 m/s
 05:35     20:46    Daglengte: 15:11 Woensdag 04 Aug
01:00 14.4° 1013.3 hPa 1.2 m/s 0.0 mm 13.9° 1013.1 hPa 1.7 m/s 54.2 mm 14.5° 1013.4 hPa 1.1 m/s 0.0 mm 13.8° 1014.1 hPa 1.0 m/s
04:00 12.3° 1013.8 hPa 0.7 m/s 10.5 mm 12.3° 1013.8 hPa 0.7 m/s 10.5 mm
07:00 13.5° 1014.7 hPa 0.7 m/s 10.5 mm 13.5° 1014.7 hPa 0.7 m/s 10.5 mm
10:00 18.2° 1015.3 hPa 0.4 m/s 10.5 mm 18.2° 1015.3 hPa 0.4 m/s 10.5 mm
13:00 21.6° 1014.9 hPa 0.8 m/s 10.5 mm 21.6° 1014.9 hPa 0.8 m/s 10.5 mm
16:00 21.3° 1014.4 hPa 2.2 m/s 10.5 mm 21.3° 1014.4 hPa 2.2 m/s 10.5 mm
19:00 18.2° 1014.1 hPa 4.7 m/s 10.6 mm 18.2° 1014.1 hPa 4.7 m/s 10.6 mm
22:00 14.0° 1013.9 hPa 4.1 m/s 10.7 mm 14.0° 1013.9 hPa 4.1 m/s 10.7 mm
 05:36     20:44    Daglengte: 15:08 Donderdag 05 Aug
01:00 13.4° 1012.1 hPa 3.7 m/s 10.7 mm 13.4° 1012.1 hPa 3.7 m/s 10.7 mm
04:00 13.8° 1009.5 hPa 4.7 m/s 10.9 mm 13.8° 1009.5 hPa 4.7 m/s 10.9 mm
07:00 13.9° 1006.6 hPa 5.7 m/s 11.6 mm 13.9° 1006.6 hPa 5.7 m/s 11.6 mm
10:00 13.7° 1003.3 hPa 7.9 m/s 13.2 mm 13.7° 1003.3 hPa 7.9 m/s 13.2 mm
13:00 15.2° 1000.9 hPa 6.0 m/s 14.6 mm 15.2° 1000.9 hPa 6.0 m/s 14.6 mm
16:00 18.6° 998.5 hPa 8.0 m/s 16.2 mm 18.6° 998.5 hPa 8.0 m/s 16.2 mm
19:00 15.9° 997.5 hPa 6.4 m/s 17.2 mm 15.9° 997.5 hPa 6.4 m/s 17.2 mm
22:00 15.1° 997.0 hPa 5.3 m/s 21.0 mm 15.1° 997.0 hPa 5.3 m/s 21.0 mm
 05:38     20:42    Daglengte: 15:04 Vrijdag 06 Aug
01:00 14.9° 996.7 hPa 4.9 m/s 21.5 mm 14.9° 996.7 hPa 4.9 m/s 21.5 mm
04:00 15.1° 996.7 hPa 5.2 m/s 21.8 mm 15.1° 996.7 hPa 5.2 m/s 21.8 mm
07:00 14.7° 998.0 hPa 4.6 m/s 21.9 mm 14.7° 998.0 hPa 4.6 m/s 21.9 mm
10:00 18.2° 1000.3 hPa 6.9 m/s 22.0 mm 18.2° 1000.3 hPa 6.9 m/s 22.0 mm
13:00 18.5° 1001.8 hPa 7.4 m/s 22.7 mm 18.5° 1001.8 hPa 7.4 m/s 22.7 mm
16:00 19.3° 1002.9 hPa 8.5 m/s 23.7 mm 19.3° 1002.9 hPa 8.5 m/s 23.7 mm
19:00 18.1° 1004.4 hPa 7.0 m/s 24.0 mm 18.1° 1004.4 hPa 7.0 m/s 24.0 mm
22:00 14.3° 1006.1 hPa 4.9 m/s 24.0 mm 14.3° 1006.1 hPa 4.9 m/s 24.0 mm
 05:40     20:40    Daglengte: 15:00 Zaterdag 07 Aug
01:00 13.0° 1006.8 hPa 5.1 m/s 24.0 mm 13.0° 1006.8 hPa 5.1 m/s 24.0 mm
04:00 12.5° 1006.5 hPa 3.7 m/s 24.0 mm 12.5° 1006.5 hPa 3.7 m/s 24.0 mm
07:00 12.8° 1006.1 hPa 2.8 m/s 24.0 mm 12.8° 1006.1 hPa 2.8 m/s 24.0 mm
10:00 17.5° 1006.5 hPa 5.0 m/s 24.0 mm 17.5° 1006.5 hPa 5.0 m/s 24.0 mm
13:00 18.2° 1005.4 hPa 4.9 m/s 24.1 mm 18.2° 1005.4 hPa 4.9 m/s 24.1 mm
16:00 18.1° 1004.6 hPa 7.2 m/s 24.2 mm 18.1° 1004.6 hPa 7.2 m/s 24.2 mm
19:00 15.0° 1003.0 hPa 6.7 m/s 24.3 mm 15.0° 1003.0 hPa 6.7 m/s 24.3 mm
22:00 15.3° 1001.8 hPa 8.5 m/s 24.7 mm 15.3° 1001.8 hPa 8.5 m/s 24.7 mm
 05:41     20:39    Daglengte: 14:58 Zondag 08 Aug
01:00 14.2° 1002.0 hPa 6.0 m/s 24.7 mm 14.2° 1002.0 hPa 6.0 m/s 24.7 mm
07:00 14.3° 1001.1 hPa 7.6 m/s 25.2 mm 14.3° 1001.1 hPa 7.6 m/s 25.2 mm
13:00 16.8° 1002.4 hPa 7.1 m/s 26.8 mm 16.8° 1002.4 hPa 7.1 m/s 26.8 mm
19:00 17.0° 1007.8 hPa 8.4 m/s 28.3 mm 17.0° 1007.8 hPa 8.4 m/s 28.3 mm
 05:43     20:37    Daglengte: 14:54 Maandag 09 Aug
01:00 14.4° 1013.1 hPa 6.7 m/s 28.3 mm 14.4° 1013.1 hPa 6.7 m/s 28.3 mm
07:00 14.8° 1017.3 hPa 6.1 m/s 28.3 mm 14.8° 1017.3 hPa 6.1 m/s 28.3 mm
13:00 19.8° 1020.6 hPa 6.9 m/s 28.3 mm 19.8° 1020.6 hPa 6.9 m/s 28.3 mm
19:00 18.2° 1021.7 hPa 5.1 m/s 28.3 mm 18.2° 1021.7 hPa 5.1 m/s 28.3 mm
 05:44     20:35    Daglengte: 14:51 Dinsdag 10 Aug
01:00 13.8° 1023.4 hPa 3.0 m/s 28.3 mm 13.8° 1023.4 hPa 3.0 m/s 28.3 mm
07:00 16.6° 1022.9 hPa 3.5 m/s 28.3 mm 16.6° 1022.9 hPa 3.5 m/s 28.3 mm
13:00 23.0° 1022.8 hPa 5.7 m/s 28.4 mm 23.0° 1022.8 hPa 5.7 m/s 28.4 mm
19:00 20.3° 1019.8 hPa 3.5 m/s 0.6 mm
 05:46     20:33    Daglengte: 14:47 Woensdag 11 Aug
01:00 15.2° 1020.8 hPa 2.3 m/s 0.0 mm
07:00 14.4° 1020.7 hPa 1.4 m/s 0.0 mm
13:00 21.3° 1020.9 hPa 2.0 m/s 0.1 mm
19:00 20.7° 1020.2 hPa 2.2 m/s 0.3 mm
 05:47     20:31    Daglengte: 14:44 Donderdag 12 Aug
01:00 15.7° 1020.8 hPa 1.2 m/s 0.0 mm
07:00 15.0° 1020.4 hPa 0.8 m/s 0.1 mm
13:00 22.1° 1020.4 hPa 1.1 m/s 0.2 mm
19:00 21.2° 1019.7 hPa 1.3 m/s 0.3 mm
 05:49     20:29    Daglengte: 14:40 Vrijdag 13 Aug
01:00 16.0° 1020.2 hPa 1.0 m/s 0.1 mm
07:00 15.2° 1019.8 hPa 1.3 m/s 0.2 mm
13:00 22.4° 1019.6 hPa 1.8 m/s 0.2 mm
19:00 21.3° 1019.0 hPa 2.0 m/s 0.3 mm
 05:50     20:27    Daglengte: 14:37 Zaterdag 14 Aug
01:00 16.1° 1019.7 hPa 1.4 m/s 0.2 mm
07:00 15.2° 1019.4 hPa 1.5 m/s 0.4 mm
13:00 22.5° 1019.3 hPa 2.0 m/s 0.4 mm
19:00 21.4° 1018.4 hPa 2.2 m/s 0.5 mm
 05:52     20:25    Daglengte: 14:33 Zondag 15 Aug
01:00 16.5° 1019.0 hPa 1.5 m/s 0.2 mm
07:00 15.4° 1018.6 hPa 1.8 m/s 0.1 mm
13:00 21.9° 1018.8 hPa 2.3 m/s 0.2 mm
19:00 21.5° 1018.1 hPa 2.4 m/s 0.3 mm
FMI Hirlam - 7.5 km EWN WRFDA - 12 km DWD ICON - 7 km GFS - 25 km Basiskaart






























































Updatetijd (Europe/Amsterdam) Resolutie Lengte Stap
FMI Hirlam 19:00, 01:00, 07:00, 13:00 7.5 km 49h 1h
EWN WRFDA 22:15, 04:15, 10:15, 16:15 12 km 73h 1h
DWD ICON 23:45, 05:45, 11:45, 17:45 7 km 75h 1h
GFS 20:15, 02:15, 08:15, 14:15 25 km 237h 3h
30+ mm
25-30 mm
20-25 mm
15-20 mm
10-15 mm
6-10 mm
4-6 mm
2-4 mm
1-2 mm
0.5-1 mm
0.2-0.5 mm
0.1-0.2 mm
30+ mm
25-30 mm
20-25 mm
15-20 mm
10-15 mm
6-10 mm
4-6 mm
2-4 mm
1-2 mm
0.5-1 mm
0.2-0.5 mm
0.1-0.2 mm
Sneeuwval
Natte sneeuw
Hagel
Vorst
30+ mm
25-30 mm
20-25 mm
15-20 mm
10-15 mm
6-10 mm
4-6 mm
2-4 mm
1-2 mm
0.5-1 mm
0.2-0.5 mm
0.1-0.2 mm
Sneeuwval
Natte sneeuw
Hagel
Vorst
Onweer
50 mm
40 mm
30 mm
26 mm
22 mm
18 mm
14 mm
10 mm
9 mm
8 mm
7 mm
6 mm
5 mm
4.5 mm
4 mm
3.5 mm
3 mm
2.5 mm
2 mm
1.5 mm
1 mm
0.8 mm
0.6 mm
0.4 mm
0.2 mm
0.05 mm
35°
30°
25°
20°
15°
10°
-5°
-10°
-15°
-20°
-25°
-30°
-35°
33> m/s
29 m/s
25 m/s
21 m/s
17 m/s
14 m/s
11 m/s
8 m/s
5 m/s
3 m/s
0 m/s
2600 J/kg
2400 J/kg
2200 J/kg
2000 J/kg
1800 J/kg
1600 J/kg
1400 J/kg
1200 J/kg
1000 J/kg
800 J/kg
600 J/kg
400 J/kg
200 J/kg
70 dBZ
65 dBZ
60 dBZ
55 dBZ
50 dBZ
45 dBZ
40 dBZ
35 dBZ
30 dBZ
25 dBZ
20 dBZ
15 dBZ
10 dBZ
5 dBZ
-1 K
-2 K
-3 K
-4 K
-5 K
-6 K
-7 K
-8 K
-9 K
950 m²/s²
900 m²/s²
850 m²/s²
800 m²/s²
750 m²/s²
700 m²/s²
650 m²/s²
600 m²/s²
550 m²/s²
500 m²/s²
450 m²/s²
400 m²/s²
350 m²/s²
300 m²/s²
250 m²/s²
200 m²/s²
150 m²/s²
100 m²/s²
46 m/s
44 m/s
42 m/s
40 m/s
38 m/s
36 m/s
34 m/s
32 m/s
30 m/s
28 m/s
26 m/s
24 m/s
22 m/s
20 m/s
16 m/s
12 m/s
8 m/s
4 m/s
30 m/s
28 m/s
26 m/s
24 m/s
22 m/s
20 m/s
18 m/s
16 m/s
14 m/s
12 m/s
10 m/s
8 m/s
6 m/s
4 m/s
2 m/s
3.0
2.8
2.6
2.4
2.2
2.0
1.8
1.6
1.4
1.2
1.0
0.8
0.6
0.4
0.2
15
14
13
12
11
10
9
8
7
6
5
4
3
2
1
90%
80%
70%
60%
50%
40%
30%
20%
10%
42
40
38
36
34
32
30
28
26
24
22
20
18
16
14
12
90+ cm
80-90 cm
70-80 cm
60-70 cm
50-60 cm
40-50 cm
30-40 cm
20-30 cm
10-20 cm
1-10 cm
Sneeuwval
Natte sneeuw
Regen
>120 mm
115 mm
110 mm
105 mm
100 mm
95 mm
90 mm
85 mm
80 mm
75 mm
70 mm
65 mm
60 mm
55 mm
50 mm
45 mm
45 mm
40 mm
35 mm
30 mm
25 mm
20 mm
15 mm
10 mm
5 mm
0.1 mm
960 hPa
880 hPa
800 hPa
720 hPa
640 hPa
560 hPa
584 gpdm
568 gpdm
552 gpdm
536 gpdm
520 gpdm
504 gpdm
488 gpdm
Extreem zwaar Noodweer Kans op onweer
15% 15% 5% 50% 15%

Dag




Kaart






35°
30°
25°
20°
15°
10°
-5°
-10°
-15°
-20°
-25°
-30°
-35°
</
33> m/s